Вернуться в каталог

HULIANWANG DIGUI-141

АктивенСвязьLEO
NORAD 67439·PAYLOAD·🇨🇳 China

Запущен Jan 13, 2026 с Wenchang Space Launch Site

Loading…

Ближайшие Пролёты (ближайшие 24 часа)

TLE

СвежийSource: Space-Track

Эпоха: Sep 14, 2026, 07:26 UTC

1 67439U 26007E   26257.31021237 -.00000080  00000-0  93905-4 0  9994
2 67439  50.0035 126.0950 0000435   0.4298 359.6575 13.29330350 32646

Отслеживайте HULIANWANG DIGUI-141 в реальном времени с AllMySat

Download on the App Store